Regional Weather Roundup
Issued by NWS

Home | Current Version | Previous Version | Text Only | Print | Product List | Glossary On
Versions: 1 2 3 4 5 6 7 8 9 10 11 12 13 14 15 16 17 18 19 20 21 22 23 24 25 26 27 28 29 30 31 32 33 34 35 36 37 38 39 40 41 42 43 44 45 46 47 48 49 50
067
ASUS43 KLMK 232202
RWRKY
KENTUCKY REGIONAL WEATHER ROUNDUP
NATIONAL WEATHER SERVICE LOUISVILLE KY
600 PM EDT SUN APR 23 2017

NOTE "FAIR" INDICATES FEW OR NO CLOUDS BELOW 12,000 FEET
WITH NO SIGNIFICANT WEATHER AND/OR OBSTRUCTIONS TO VISIBILITY.

KYZ001>023-026-027-061>063-070>075-232300-
WESTERN AND SOUTH CENTRAL KENTUCKY

CITY           SKY/WX    TMP DP  RH WIND       PRES   REMARKS
PADUCAH        MOSUNNY   69  40  34 N17       29.90S
HENDERSON      SUNNY     71  34  25 NE15G23   29.90S
OWENSBORO      NOT AVBL
HOPKINSVILLE   LGT RAIN  55  51  86 N13       29.88S
BOWLING GREEN  LGT RAIN  53  51  93 VRB3      29.89R
GLASGOW        NOT AVBL
$$

KYZ024-025-028>034-038-045-046-053-232300-
NORTH CENTRAL KENTUCKY

CITY           SKY/WX    TMP DP  RH WIND       PRES   REMARKS
LOUISVILLE/SDF CLOUDY    61  42  49 NE10      29.92S
LOUISVILLE/LOU CLOUDY    61  40  45 NE10G18   29.93S
FORT KNOX      CLOUDY    54  48  82 NE8       29.91S
$$

KYZ035>037-039>044-047>052-055>060-089>105-232300-
NORTHEAST KENTUCKY

CITY           SKY/WX    TMP DP  RH WIND       PRES   REMARKS
LEXINGTON      CLOUDY    56  47  71 NE13      29.93S
COVINGTON      CLOUDY    63  34  33 NE13      29.95S
FRANKFORT      CLOUDY    59  45  59 NE6       29.91F
$$

KYZ054-064>069-076>088-106>120-232300-
SOUTHEAST KENTUCKY

CITY           SKY/WX    TMP DP  RH WIND       PRES   REMARKS
JACKSON        LGT RAIN  51  50  96 VRB3      29.91S FOG
LONDON         LGT RAIN  52  48  86 E12G20    29.87S
SOMERSET       DRIZZLE   52  52 100 E8G17     29.86R
MIDDLESBORO    RAIN      54  54 100 CALM      29.88R
MONTICELLO     LGT RAIN  53  51  93 N9G20     29.84F
$$





USA.gov is the U.S. government's official web portal to all federal, state and local government web resources and services.